AFP1 LPMA-LPMA

Flight info

Callsign AFP1
Flight time 0h 18m
Altitude 4500
Route CIRCUITS AROUND MADEIRA
Aircraft F16/M-V/N

Departure

Time 2026-05-05 15:25
Airport Cristiano Ronaldo International Airport (LPMA)

Arrival

Time 2026-05-05 15:43
Airport Cristiano Ronaldo International Airport (LPMA)
Time Latitude Longitude Altitude Speed Heading
2026-05-05 15:23 32.69287 -16.77900 166 ft 8 kts 285°
2026-05-05 15:23 32.69288 -16.77973 166 ft 18 kts 266°
2026-05-05 15:23 32.69227 -16.78098 164 ft 18 kts 225°
2026-05-05 15:24 32.69140 -16.78203 159 ft 18 kts 224°
2026-05-05 15:24 32.69041 -16.78295 154 ft 18 kts 214°
2026-05-05 15:24 32.69049 -16.78339 153 ft 24 kts 44°
2026-05-05 15:24 32.69419 -16.77889 168 ft 120 kts 43°
2026-05-05 15:25 32.70295 -16.76840 540 ft 209 kts 43°
2026-05-05 15:25 32.71396 -16.75610 1016 ft 233 kts 44°
2026-05-05 15:25 32.72545 -16.74361 1689 ft 221 kts 44°
2026-05-05 15:25 32.73761 -16.73247 2190 ft 229 kts 19°
2026-05-05 15:26 32.75306 -16.73643 1850 ft 238 kts 320°
2026-05-05 15:26 32.76039 -16.75417 2660 ft 242 kts 283°
2026-05-05 15:26 32.76376 -16.77529 3354 ft 268 kts 282°
2026-05-05 15:26 32.76725 -16.79719 3258 ft 270 kts 282°
2026-05-05 15:27 32.77046 -16.81859 3565 ft 263 kts 280°
2026-05-05 15:27 32.77353 -16.84002 4314 ft 262 kts 280°
2026-05-05 15:27 32.77671 -16.86212 4425 ft 270 kts 280°
2026-05-05 15:27 32.77958 -16.88205 4470 ft 266 kts 279°
2026-05-05 15:28 32.78703 -16.90206 4585 ft 270 kts 295°
2026-05-05 15:28 32.79371 -16.92268 4630 ft 266 kts 289°
2026-05-05 15:28 32.79929 -16.94385 4643 ft 269 kts 285°
2026-05-05 15:28 32.80346 -16.96528 4670 ft 267 kts 282°
2026-05-05 15:29 32.80663 -16.98713 4752 ft 269 kts 277°
2026-05-05 15:29 32.80891 -17.00932 4470 ft 271 kts 275°
2026-05-05 15:29 32.81003 -17.03145 4083 ft 262 kts 253°
2026-05-05 15:29 32.80046 -17.04842 5305 ft 244 kts 217°
2026-05-05 15:30 32.78711 -17.06168 6654 ft 254 kts 238°
2026-05-05 15:30 32.78597 -17.08197 7285 ft 266 kts 299°
2026-05-05 15:30 32.80001 -17.09577 7260 ft 269 kts 334°
2026-05-05 15:30 32.81668 -17.10570 7416 ft 267 kts 327°
2026-05-05 15:31 32.82716 -17.12319 7333 ft 266 kts 283°
2026-05-05 15:31 32.82550 -17.14461 7209 ft 266 kts 243°
2026-05-05 15:31 32.81441 -17.16240 7135 ft 268 kts 228°
2026-05-05 15:31 32.80114 -17.17781 7049 ft 274 kts 223°
2026-05-05 15:32 32.78641 -17.19393 5183 ft 309 kts 223°
2026-05-05 15:32 32.76976 -17.21277 2754 ft 353 kts 223°
2026-05-05 15:32 32.75249 -17.23253 1479 ft 324 kts 209°
2026-05-05 15:32 32.73398 -17.23561 495 ft 246 kts 137°
2026-05-05 15:33 32.72467 -17.21989 829 ft 236 kts 117°
2026-05-05 15:33 32.71759 -17.20226 1245 ft 234 kts 110°
2026-05-05 15:33 32.71148 -17.18446 1836 ft 232 kts 110°
2026-05-05 15:33 32.70544 -17.16657 2486 ft 234 kts 110°
2026-05-05 15:34 32.69934 -17.14847 3171 ft 245 kts 110°
2026-05-05 15:34 32.69303 -17.12977 3198 ft 243 kts 110°
2026-05-05 15:34 32.68676 -17.11116 3208 ft 241 kts 110°
2026-05-05 15:34 32.67993 -17.09228 2975 ft 252 kts 111°
2026-05-05 15:35 32.67345 -17.07298 2432 ft 251 kts 108°
2026-05-05 15:35 32.66785 -17.05332 1694 ft 248 kts 105°
2026-05-05 15:35 32.66350 -17.03407 1590 ft 235 kts 101°
2026-05-05 15:35 32.66051 -17.01519 1997 ft 236 kts 96°
2026-05-05 15:36 32.65885 -16.99552 2428 ft 247 kts 95°
2026-05-05 15:36 32.65540 -16.97498 1531 ft 256 kts 102°
2026-05-05 15:36 32.65227 -16.95509 1465 ft 247 kts 94°
2026-05-05 15:36 32.65064 -16.94276 2134 ft 215 kts 98°
2026-05-05 15:37 32.64823 -16.92600 3082 ft 186 kts 98°
2026-05-05 15:37 32.64565 -16.90748 3148 ft 237 kts 98°
2026-05-05 15:37 32.64293 -16.88792 2488 ft 237 kts 98°
2026-05-05 15:37 32.64027 -16.86897 1561 ft 231 kts 97°
2026-05-05 15:38 32.63776 -16.84978 854 ft 235 kts 90°
2026-05-05 15:38 32.63911 -16.83062 647 ft 224 kts 71°
2026-05-05 15:38 32.64679 -16.81556 1001 ft 195 kts 44°
2026-05-05 15:38 32.65699 -16.80885 769 ft 170 kts 22°
2026-05-05 15:39 32.66761 -16.80349 391 ft 163 kts 27°
2026-05-05 15:39 32.67689 -16.79790 165 ft 137 kts 35°
2026-05-05 15:39 32.68409 -16.79037 221 ft 141 kts 43°
2026-05-05 15:39 32.69109 -16.78237 182 ft 136 kts 43°
2026-05-05 15:40 32.69734 -16.77479 367 ft 118 kts 44°
2026-05-05 15:40 32.70586 -16.76440 741 ft 221 kts 45°
2026-05-05 15:40 32.71534 -16.75053 639 ft 220 kts 84°
2026-05-05 15:40 32.70356 -16.74444 461 ft 259 kts 227°
2026-05-05 15:41 32.69212 -16.75967 627 ft 252 kts 233°
2026-05-05 15:41 32.68102 -16.77585 604 ft 255 kts 228°
2026-05-05 15:41 32.66800 -16.78938 365 ft 253 kts 210°
2026-05-05 15:41 32.65993 -16.80180 1114 ft 205 kts 335°
2026-05-05 15:42 32.67298 -16.79939 591 ft 185 kts 33°
2026-05-05 15:42 32.68234 -16.79232 335 ft 144 kts 40°
2026-05-05 15:42 32.68943 -16.78424 183 ft 138 kts 43°
2026-05-05 15:42 32.69595 -16.77662 174 ft 124 kts 43°
2026-05-05 15:43 32.70044 -16.77145 186 ft 58 kts 43°
2026-05-05 15:43 32.70296 -16.76856 186 ft 43 kts 44°
2026-05-05 15:43 32.70408 -16.76760 186 ft 9 kts 295°
2026-05-05 15:43 32.70212 -16.76956 186 ft 70 kts 225°
2026-05-05 15:44 32.69951 -16.77175 185 ft 31 kts 179°
2026-05-05 15:44 32.69772 -16.77260 175 ft 30 kts 223°
2026-05-05 15:44 32.69623 -16.77442 166 ft 25 kts 204°
2026-05-05 15:44 32.69529 -16.77378 166 ft 6 kts 137°